Flag for Canada Weather past 2 weeks in Hamilton, Ontario, Canada

Now
63 °F

More clouds than sun.


Feels Like: 63 °F
Forecast: 58 / 64 °F
Wind: 2 mph from North

Location: Hamilton Airport

Current Time: Sep 30, 2014 at 2:35:52 PM

Latest Report: Sep 30, 2014 at 2:00 PM


Visibility: 15 mi

Pressure: 29.92 "Hg

Humidity: 77%

Dew point: 55 °F

Location of HamiltonLocation

Historic Weather in Hamilton — Graph

°F

Hamilton temperature yesterday

Maximum temperature yesterday: 75 °F (at 3:00 PM)
Minimum temperature yesterday: 54 °F (at 5:00 AM)
Average temperature yesterday: 63 °F

Past Weeks' High & Low Weather Summary

 TemperatureHumidityPressure
High77 °F (Sep 28, 4:00 PM)100% (Sep 16, 12:00 AM)30.51 "Hg (Sep 16, 12:00 AM)
Low39 °F (Sep 19, 6:00 AM)44% (Sep 27, 3:00 PM)29.54 "Hg (Sep 21, 9:00 AM)
Average58 °F78%30.12 "Hg
* Reported Sep 15 1:00 PM — Sep 30 1:00 PM, Hamilton, Weather by CustomWeather, © 2014

Note: Actual official high and low records may vary slightly from our data, if they occured in-between our weather recording intervals... More about our weather records

Advertising

Hamilton weather history for previous 24 hours

 ConditionsComfort  
Time TempWeatherWind HumidityBarometerVisibility
1:00 PM
Sep 30
63 °FLight rain. Mostly cloudy.6 mph88%29.92 "Hg8 mi
11:00 AM61 °FLight rain. Cloudy.2 mph94%29.90 "Hg6 mi
10:00 AM61 °FLight rain. Mostly cloudy.5 mph94%29.88 "Hg6 mi
9:00 AM59 °FLight rain. Fog.3 mph100%29.89 "Hg1 mi
8:00 AM57 °FLight rain. Fog.3 mph100%29.88 "Hg3 mi
7:51 AM57 °FLight rain. Fog.3 mph100%29.88 "Hg3 mi
7:00 AM57 °FSprinkles. Overcast.5 mph100%29.88 "Hg15 mi
6:00 AM57 °FFog.No wind94%29.88 "Hg2 mi
5:00 AM54 °FFog.6 mph100%29.86 "Hg2 mi
4:00 AM55 °FPassing clouds.3 mph100%29.86 "Hg15 mi
3:00 AM54 °FPassing clouds.5 mph100%29.86 "Hg15 mi
2:00 AM55 °FPassing clouds.5 mph94%29.86 "Hg15 mi
1:00 AM55 °FPassing clouds.5 mph94%29.86 "Hg15 mi
12:00 AM55 °FPassing clouds.5 mph100%29.87 "Hg15 mi
11:00 PM
Sep 29
57 °FPassing clouds.5 mph94%29.89 "Hg15 mi
10:00 PM59 °FPassing clouds.6 mph94%29.90 "Hg15 mi
9:00 PM59 °FPassing clouds.6 mph88%29.90 "Hg15 mi
8:00 PM63 °FPassing clouds.6 mph73%29.90 "Hg15 mi
7:00 PM66 °FPassing clouds.7 mph68%29.90 "Hg15 mi
6:00 PM73 °FScattered clouds.7 mph57%29.90 "Hg15 mi
5:00 PM72 °FScattered clouds.5 mph61%29.89 "Hg15 mi
4:00 PM75 °FPassing clouds.8 mph50%29.91 "Hg15 mi
3:00 PM75 °FScattered clouds.6 mph54%29.93 "Hg15 mi
2:00 PM73 °FScattered clouds.6 mph57%29.94 "Hg15 mi
Weather by CustomWeather, © 2014

See weather overviewHow to use our weather pages